Powrót do katalogu

COSMOS 2251 DEB

AktywnyLEO
NORAD 34796·DEBRIS·🇷🇺 Russia

Wystrzelony Jun 16, 1993 z Plesetsk Cosmodrome

Loading…

Następne Przeloty (najbliższe 24 godziny)

TLE

ŚwieżeSource: Space-Track

Epoka: Sep 14, 2026, 17:15 UTC

1 34796U 93036AAZ 26257.71898323  .00001534  00000-0  38087-3 0  9995
2 34796  74.0288  58.3295 0097895  92.7078 279.9866 14.49832606920262

Śledź COSMOS 2251 DEB w czasie rzeczywistym z AllMySat

Download on the App Store